Home > Weather > Vestby > Past weeks

Flag for Norway Weather for the Past 2 Weeks in Vestby, Norway

Now
48 °F

Drizzle. Overcast.


Feels Like: 43 °F
Forecast: 34 / 57 °F
Wind: 13 mph from Southeast

Location: Rygge

Current Time: May 3, 2016 at 12:59:14 PM

Latest Report: May 3, 2016 at 11:50 AM


Visibility: N/A

Pressure: 29.95 "Hg

Humidity: 87%

Dew Point: 45 °F

Location of VestbyLocation

Historic Weather in Vestby — Graph

°F

Vestby Temperature Yesterday

Maximum temperature yesterday: 50 °F (at 1:50 PM)
Minimum temperature yesterday: 41 °F (at 12:50 AM)
Average temperature yesterday: 47 °F

High & Low Weather Summary for the Past Weeks

 TemperatureHumidityPressure
High57 °F (Apr 19, 4:20 PM)100% (Apr 25, 12:50 AM)30.27 "Hg (Apr 25, 12:50 AM)
Low28 °F (Apr 23, 5:20 AM)24% (Apr 22, 4:50 PM)29.45 "Hg (Apr 18, 4:50 PM)
Average43 °F66%29.90 "Hg
* Reported Apr 18 11:20 AM — May 3 11:20 AM, Vestby, Weather by CustomWeather, © 2016

Note: Actual official high and low records may vary slightly from our data, if they occured in-between our weather recording intervals... More about our weather records

Advertising

Vestby Weather History for the Previous 24 Hours

Scroll right to see more
 ConditionsComfort  
Time TempWeatherWind HumidityBarometerVisibility
11:20 AM
Tue, May 3
48 °FLight rain. Partly sunny.12 mph87%29.95 "HgN/A
10:50 AM48 °FLight rain. Partly sunny.13 mph87%29.95 "HgN/A
10:20 AM48 °FLight rain. Broken clouds.14 mph87%29.92 "HgN/A
9:50 AM48 °FLight rain. Partly sunny.15 mph87%29.92 "HgN/A
9:20 AM48 °FLight rain. Broken clouds.16 mph87%29.92 "HgN/A
8:50 AM46 °FLight rain. Partly sunny.15 mph93%29.92 "Hg6 mi
8:20 AM46 °FLight rain. Partly sunny.13 mph93%29.92 "Hg5 mi
7:50 AM46 °FDrizzle. Broken clouds.12 mph93%29.92 "Hg4 mi
7:20 AM46 °FDrizzle. Broken clouds.10 mph93%29.92 "Hg4 mi
6:50 AM45 °FDrizzle. Broken clouds.9 mph100%29.95 "Hg5 mi
6:20 AM46 °FDrizzle. Partly sunny.8 mph93%29.95 "Hg4 mi
5:50 AM46 °FPartly cloudy.7 mph93%29.95 "Hg4 mi
4:50 AM45 °FDrizzle. Mostly cloudy.8 mph93%29.98 "Hg4 mi
4:20 AM45 °FDrizzle. Mostly cloudy.9 mph100%29.98 "Hg4 mi
3:20 AM45 °FDrizzle. Mostly cloudy.15 mph93%29.98 "Hg3 mi
2:50 AM46 °FMostly cloudy.10 mph87%29.98 "HgN/A
2:20 AM46 °FOvercast.8 mph87%30.01 "HgN/A
1:50 AM46 °FOvercast.7 mph87%30.01 "HgN/A
1:20 AM46 °FOvercast.7 mph87%30.01 "HgN/A
12:50 AM46 °FOvercast.9 mph87%30.04 "HgN/A
11:50 PM
Mon, May 2
48 °FOvercast.6 mph76%30.04 "HgN/A
11:20 PM48 °FOvercast.7 mph76%30.04 "HgN/A
10:50 PM48 °FPassing clouds.7 mph71%30.04 "HgN/A
10:20 PM48 °FPassing clouds.7 mph71%30.04 "HgN/A
9:50 PM48 °FSunny.8 mph71%30.04 "Hg10 mi
9:20 PM48 °FPassing clouds.6 mph71%30.07 "HgN/A
8:20 PM48 °FSunny.8 mph66%30.07 "Hg10 mi
7:50 PM48 °FSunny.9 mph66%30.07 "Hg10 mi
7:20 PM48 °FSunny.13 mph66%30.09 "Hg10 mi
6:50 PM50 °FPassing clouds.13 mph54%30.09 "HgN/A
6:20 PM50 °FScattered clouds.12 mph58%30.09 "HgN/A
5:50 PM50 °FSunny.15 mph58%30.12 "Hg10 mi
5:20 PM50 °FSunny.15 mph58%30.12 "Hg10 mi
4:50 PM50 °FMore clouds than sun.14 mph67%30.15 "HgN/A
4:20 PM50 °FScattered clouds.15 mph67%30.15 "HgN/A
3:50 PM50 °FSunny.17 mph67%30.15 "Hg10 mi
3:20 PM50 °FSunny.16 mph67%30.15 "Hg10 mi
2:50 PM50 °FPassing clouds.15 mph67%30.18 "HgN/A
2:20 PM48 °FSunny.17 mph62%30.18 "Hg10 mi
1:50 PM50 °FSunny.13 mph67%30.18 "Hg10 mi
1:20 PM48 °FPartly sunny.14 mph71%30.18 "HgN/A
12:50 PM48 °FPartly sunny.13 mph66%30.21 "HgN/A
12:20 PM48 °FPartly sunny.14 mph66%30.21 "HgN/A
Weather by CustomWeather, © 2016

See weather overviewHow to use our weather pages